Weather History for Mount Ida, AR

Change the Weather History Date:

Saturday, February 2, 2013

  Actual Average (KHOT) Record (KHOT)
Temperature  
Mean Temperature 44 °F -  
Max Temperature 61 °F 54 °F 80 °F (1989)
Min Temperature 27 °F 32 °F 1 °F (1951)
Degree Days  
Heating Degree Days 21    
Moisture  
Dew Point 28 °F    
Average Humidity 63    
Maximum Humidity 89    
Minimum Humidity 32    
Precipitation  
Precipitation 0.00 in - - ()
Sea Level Pressure  
Sea Level Pressure 30.22 in    
Wind  
Wind Speed 2 mph (NW)    
Max Wind Speed 12 mph    
Max Gust Speed 20 mph    
Visibility 10 miles    
Events      
Averages and records for this station are not official NWS values.
T = Trace of Precipitation, MM = Missing Value Source: NWS Daily Summary

Daily Weather History Graph

Daily Weather History Graph

Search for Another Location

Airport:

Trip Planner

Search our weather history database for the weather conditions in past years. The results will help you decide how hot, cold, wet, or windy it might be!

Date:

Astronomy

Feb. 02, 2013 Rise Set
Actual Time 7:11 AM CST 5:45 PM CST
Civil Twilight 6:44 AM CST 6:11 PM CST
Nautical Twilight 6:14 AM CST 6:41 PM CST
Astronomical Twilight 5:45 AM CST 7:11 PM CST
Moon No Moon Rise 10:41 AM CST (2/2)
Length of Visible Light 11h 26m
Length of Day
10h 33m
Waning Gibbous, 59% of the Moon is Illuminated
Feb 2
Waning Gibbous
Feb 3
Last Quarter
Feb 10
New
Feb 17
First Quarter
Feb 25
Full

Hourly Weather History & Observations

Time (CST) Temp. Windchill Dew Point Humidity Pressure Visibility Wind Dir Wind Speed Gust Speed Precip Events Conditions
12:53 AM 28.0 °F - 21.0 °F 75% 30.25 in 10.0 mi Calm Calm - N/A   Clear
1:53 AM 28.0 °F - 21.0 °F 75% 30.23 in 10.0 mi Calm Calm - N/A   Clear
2:53 AM 27.0 °F - 21.0 °F 78% 30.23 in 10.0 mi Calm Calm - N/A   Clear
3:53 AM 28.0 °F - 21.9 °F 78% 30.22 in 10.0 mi Calm Calm - N/A   Scattered Clouds
4:53 AM 28.0 °F - 23.0 °F 81% 30.21 in 10.0 mi Calm Calm - N/A   Scattered Clouds
5:53 AM 28.9 °F - 23.0 °F 78% 30.22 in 10.0 mi Calm Calm - N/A   Overcast
6:53 AM 28.9 °F - 24.1 °F 82% 30.22 in 10.0 mi Calm Calm - N/A   Partly Cloudy
7:53 AM 30.0 °F - 24.1 °F 79% 30.22 in 10.0 mi Calm Calm - N/A   Scattered Clouds
8:53 AM 35.1 °F - 25.0 °F 67% 30.23 in 10.0 mi Calm Calm - N/A   Clear
9:53 AM 45.0 °F - 28.0 °F 52% 30.23 in 10.0 mi Calm Calm - N/A   Clear
10:53 AM 52.0 °F - 34.0 °F 50% 30.22 in 10.0 mi Variable 5.8 mph - N/A   Clear
11:53 AM 57.9 °F - 33.1 °F 39% 30.22 in 10.0 mi Variable 6.9 mph - N/A   Clear
12:53 PM 59.0 °F - 30.9 °F 35% 30.20 in 10.0 mi NNW 9.2 mph - N/A   Clear
1:53 PM 61.0 °F - 30.9 °F 32% 30.18 in 10.0 mi Variable 6.9 mph - N/A   Clear
2:53 PM 61.0 °F - 30.9 °F 32% 30.18 in 10.0 mi Variable 6.9 mph - N/A   Clear
3:53 PM 61.0 °F - 32.0 °F 34% 30.19 in 10.0 mi NW 6.9 mph - N/A   Clear
4:53 PM 57.9 °F - 30.9 °F 36% 30.20 in 10.0 mi NNW 11.5 mph 19.6 mph N/A   Clear
5:53 PM 53.1 °F - 32.0 °F 45% 30.22 in 10.0 mi NNW 3.5 mph - N/A   Clear
6:53 PM 48.0 °F - 32.0 °F 54% 30.24 in 10.0 mi Calm Calm - N/A   Clear
7:53 PM 42.1 °F 40.2 °F 33.1 °F 70% 30.25 in 10.0 mi WNW 3.5 mph - N/A   Clear
8:53 PM 39.0 °F - 33.1 °F 79% 30.27 in 10.0 mi Calm Calm - N/A   Clear
9:53 PM 37.0 °F - 32.0 °F 82% 30.26 in 10.0 mi Calm Calm - N/A   Clear
10:53 PM 34.0 °F - 30.9 °F 89% 30.25 in 10.0 mi Calm Calm - N/A   Clear
11:53 PM 35.1 °F - 30.9 °F 85% 30.24 in 10.0 mi Calm Calm - N/A   Clear